Nowra Airport
YSNW : now visible

Airfield :











YOU CAN JOIN US ON...

 
LOGIN :

Register | Disclaimer

   EN    FR    IT 

 









Legend :    VFR   Marginal VFR   IFR   Intensive IFR   Very Intensive IFR
Visi :
Ceiling :
>= 8 km
>= 3000ft
5 to 8 km
1000 to 3000 ft
1500m to 5 km
500 to 1000 ft
800 to 1500m
200 to 500 ft
< 800m
< 200 ft
Symbols :   Thunderstorms  Fog  Heavy snow  Heavy precipitations  Wind > 20 kt






- Airport Elevation : 400 ft
- IATA code : NOA


YSNW - Nowra

CURRENT METAR :
  • 172230Z 19009KT 9999 BKN008 20/20 Q1014

EXPIRED METARs :
  • 172200Z 18011KT 9999 BKN008 BKN013 19/19 Q1014
  • 172130Z 18011KT 9999 -DZ BKN008 19/19 Q1013
  • 172100Z 18009KT 6000 -DZ BKN008 19/19 Q1013
  • 172030Z 18011KT 9000 BKN008 20/20 Q1013
  • 172000Z AUTO 18010KT 9999 // BKN008 OVC012 OVC019 20/20 Q1013

Expired Forecast.
YMMM FIR / Oceania



MET'MAP, your aeronautical weather chart ! - Copyright ORBIFLY December 2007 - Disclaimer

ORBIFLY MET'MAP TEAM :

Programming & Development : Alexandra Zaïnal
Concept & original design : Baudouin d'Aumeries
Assistance for programming : Marc-Olivier Méhu
Technical & hardware support : Manuel Goepfert

Contact : metmap@orbifly.com




SOURCES & CREDITS :

   NOAA       Earth
Advisory